• In Belarus
  • List of Countries
  • For 7 days
  • Water Temperature
  • Satellite Maps
  • Weather Map
  • Weather Widgets
  • user-avatar
    Login

    Hourly Weather Viseu

    Today, 22 March, Friday

    Time Temperature Precipitation Wind Pressure Humidity
    00:00 +8°C° 0 mm 1 mps 726 mmHg 66%
    01:00 +8°C° 0 mm 1 mps 726 mmHg 66%
    02:00 +7°C° 0 mm 1 mps 726 mmHg 66%
    03:00 +7°C° 0 mm 1 mps 726 mmHg 67%
    04:00 +7°C° 0 mm 1 mps 726 mmHg 67%
    05:00 +6°C° 0 mm 2 mps 726 mmHg 68%
    06:00 +9°C° 0 mm 1 mps 727 mmHg 62%
    07:00 +11°C° 0 mm 1 mps 727 mmHg 57%
    08:00 +13°C° 0 mm 1 mps 728 mmHg 51%
    09:00 +16°C° 0 mm 1 mps 728 mmHg 47%
    10:00 +19°C° 0 mm 1 mps 728 mmHg 42%
    11:00 +19°C° 0 mm 0 mps 729 mmHg 36%
    12:00 +21°C° 0 mm 1 mps 728 mmHg 35%
    13:00 +21°C° 0 mm 1 mps 728 mmHg 34%
    14:00 +21°C° 0 mm 1 mps 727 mmHg 34%
    15:00 +20°C° 0 mm 1 mps 727 mmHg 40%
    16:00 +18°C° 0 mm 1 mps 727 mmHg 47%
    17:00 +16°C° 0 mm 1 mps 726 mmHg 53%
    18:00 +14°C° 0 mm 1 mps 726 mmHg 57%
    19:00 +12°C° 0 mm 1 mps 726 mmHg 60%
    20:00 +9°C° 0 mm 2 mps 727 mmHg 63%
    21:00 +9°C° 0 mm 2 mps 727 mmHg 63%
    22:00 +9°C° 0 mm 2 mps 727 mmHg 64%
    23:00 +8°C° 0 mm 2 mps 727 mmHg 64%

    Tomorrow, 23 March, Saturday

    Time Temperature Precipitation Wind Pressure Humidity
    00:00 +8°C° 0 mm 2 mps 726 mmHg 64%
    01:00 +8°C° 0 mm 2 mps 726 mmHg 63%
    02:00 +8°C° 0 mm 2 mps 726 mmHg 63%
    03:00 +7°C° 0 mm 2 mps 726 mmHg 63%
    04:00 +7°C° 0 mm 2 mps 726 mmHg 63%
    05:00 +7°C° 0 mm 2 mps 726 mmHg 63%
    06:00 +9°C° 0 mm 2 mps 726 mmHg 59%
    07:00 +12°C° 0 mm 2 mps 726 mmHg 55%
    08:00 +14°C° 0 mm 2 mps 726 mmHg 51%
    09:00 +16°C° 0 mm 3 mps 726 mmHg 45%
    10:00 +18°C° 0 mm 3 mps 726 mmHg 40%
    11:00 +20°C° 0 mm 3 mps 726 mmHg 35%
    12:00 +20°C° 0 mm 3 mps 726 mmHg 34%
    13:00 +20°C° 0 mm 3 mps 725 mmHg 34%
    14:00 +21°C° 0 mm 2 mps 725 mmHg 33%
    15:00 +20°C° 0 mm 2 mps 725 mmHg 39%
    16:00 +18°C° 0 mm 2 mps 724 mmHg 46%
    17:00 +18°C° 0 mm 1 mps 724 mmHg 52%
    18:00 +16°C° 0 mm 1 mps 724 mmHg 53%
    19:00 +15°C° 0 mm 1 mps 724 mmHg 55%
    20:00 +13°C° 0 mm 1 mps 724 mmHg 56%
    21:00 +13°C° 0 mm 1 mps 724 mmHg 58%
    22:00 +12°C° 0 mm 1 mps 724 mmHg 60%
    23:00 +11°C° 0 mm 1 mps 724 mmHg 62%

    Day after tomorrow, 24 March, Sunday

    Time Temperature Precipitation Wind Pressure Humidity
    00:00 +10°C° 0 mm 2 mps 724 mmHg 63%
    01:00 +10°C° 0 mm 2 mps 724 mmHg 65%
    02:00 +9°C° 0 mm 2 mps 724 mmHg 66%
    03:00 +9°C° 0 mm 2 mps 724 mmHg 68%
    04:00 +9°C° 0 mm 2 mps 724 mmHg 69%
    05:00 +8°C° 0 mm 2 mps 724 mmHg 70%
    06:00 +10°C° 0 mm 3 mps 724 mmHg 65%
    07:00 +12°C° 0 mm 3 mps 725 mmHg 59%
    08:00 +14°C° 0 mm 3 mps 725 mmHg 54%
    09:00 +15°C° 0 mm 4 mps 725 mmHg 48%
    10:00 +18°C° 0 mm 4 mps 725 mmHg 42%
    11:00 +20°C° 0 mm 5 mps 725 mmHg 36%
    12:00 +21°C° 0 mm 4 mps 725 mmHg 35%
    13:00 +21°C° 0 mm 4 mps 724 mmHg 33%
    14:00 +22°C° 0 mm 4 mps 724 mmHg 32%
    15:00 +21°C° 0 mm 4 mps 724 mmHg 37%
    16:00 +19°C° 0 mm 3 mps 723 mmHg 41%
    17:00 +18°C° 0 mm 3 mps 723 mmHg 46%
    18:00 +16°C° 0 mm 2 mps 723 mmHg 48%
    19:00 +15°C° 0 mm 2 mps 723 mmHg 49%
    20:00 +13°C° 0 mm 2 mps 723 mmHg 51%
    21:00 +12°C° 0 mm 2 mps 723 mmHg 52%
    22:00 +12°C° 0 mm 2 mps 723 mmHg 54%
    23:00 +10°C° 0 mm 3 mps 723 mmHg 56%

    25 March, Monday

    Time Temperature Precipitation Wind Pressure Humidity
    00:00 +10°C° 0 mm 3 mps 723 mmHg 57%
    01:00 +9°C° 0 mm 3 mps 723 mmHg 59%
    02:00 +9°C° 0 mm 3 mps 723 mmHg 61%
    03:00 +9°C° 0 mm 3 mps 723 mmHg 63%
    04:00 +8°C° 0 mm 3 mps 723 mmHg 65%
    05:00 +8°C° 0 mm 3 mps 723 mmHg 68%
    06:00 +10°C° 0 mm 3 mps 723 mmHg 62%
    07:00 +11°C° 0 mm 4 mps 723 mmHg 57%
    08:00 +13°C° 0 mm 4 mps 724 mmHg 52%
    09:00 +15°C° 0 mm 4 mps 724 mmHg 47%
    10:00 +17°C° 0 mm 5 mps 724 mmHg 42%
    11:00 +20°C° 0 mm 5 mps 724 mmHg 38%
    12:00 +20°C° 0 mm 5 mps 723 mmHg 37%
    13:00 +21°C° 0 mm 5 mps 722 mmHg 36%
    14:00 +22°C° 0 mm 5 mps 722 mmHg 35%
    15:00 +20°C° 0 mm 4 mps 721 mmHg 39%
    16:00 +19°C° 0 mm 4 mps 721 mmHg 44%
    17:00 +18°C° 0 mm 3 mps 720 mmHg 48%
    18:00 +16°C° 0 mm 3 mps 720 mmHg 50%
    19:00 +14°C° 0 mm 3 mps 721 mmHg 53%
    20:00 +12°C° 0 mm 3 mps 721 mmHg 55%
    21:00 +12°C° 0 mm 4 mps 721 mmHg 58%
    22:00 +11°C° 0 mm 4 mps 721 mmHg 62%
    23:00 +11°C° 0 mm 4 mps 721 mmHg 65%

    26 March, Tuesday

    Time Temperature Precipitation Wind Pressure Humidity
    00:00 +9°C° 0 mm 5 mps 721 mmHg 66%
    01:00 +9°C° 0 mm 5 mps 721 mmHg 67%
    02:00 +8°C° 0 mm 5 mps 721 mmHg 68%
    03:00 +8°C° 0 mm 5 mps 720 mmHg 68%
    04:00 +7°C° 0 mm 5 mps 720 mmHg 68%
    05:00 +7°C° 0 mm 5 mps 720 mmHg 68%
    06:00 +8°C° 0 mm 5 mps 720 mmHg 64%
    07:00 +9°C° 0 mm 6 mps 721 mmHg 61%
    08:00 +11°C° 0 mm 6 mps 721 mmHg 58%
    09:00 +14°C° 0 mm 6 mps 721 mmHg 53%
    10:00 +16°C° 0 mm 6 mps 720 mmHg 47%
    11:00 +19°C° 0 mm 6 mps 720 mmHg 42%
    12:00 +21°C° 0 mm 6 mps 720 mmHg 39%
    13:00 +22°C° 0 mm 5 mps 719 mmHg 37%
    14:00 +25°C° 0 mm 5 mps 719 mmHg 34%
    15:00 +23°C° 0 mm 4 mps 719 mmHg 39%
    16:00 +21°C° 0 mm 3 mps 719 mmHg 45%
    17:00 +20°C° 0 mm 2 mps 718 mmHg 51%
    18:00 +19°C° 0 mm 2 mps 719 mmHg 53%
    19:00 +17°C° 0 mm 2 mps 719 mmHg 56%
    20:00 +15°C° 0 mm 2 mps 719 mmHg 59%
    21:00 +14°C° 0 mm 3 mps 720 mmHg 58%
    22:00 +14°C° 0 mm 3 mps 720 mmHg 56%
    23:00 +13°C° 0 mm 3 mps 720 mmHg 55%

    27 March, Wednesday

    Time Temperature Precipitation Wind Pressure Humidity
    00:00 +13°C° 0 mm 3 mps 721 mmHg 56%
    01:00 +12°C° 0 mm 4 mps 721 mmHg 57%
    02:00 +12°C° 0 mm 4 mps 721 mmHg 58%
    03:00 +12°C° 0 mm 4 mps 721 mmHg 58%
    04:00 +11°C° 0 mm 4 mps 721 mmHg 59%
    05:00 +11°C° 0 mm 4 mps 721 mmHg 59%
    06:00 +12°C° 0 mm 4 mps 722 mmHg 55%
    07:00 +14°C° 0 mm 4 mps 722 mmHg 52%
    08:00 +15°C° 0 mm 5 mps 722 mmHg 48%
    09:00 +16°C° 0 mm 5 mps 723 mmHg 45%
    10:00 +19°C° 0 mm 5 mps 723 mmHg 41%
    11:00 +20°C° 0 mm 5 mps 723 mmHg 37%
    12:00 +20°C° 0 mm 5 mps 723 mmHg 37%
    13:00 +21°C° 0 mm 5 mps 722 mmHg 37%
    14:00 +21°C° 0 mm 5 mps 722 mmHg 36%
    15:00 +19°C° 0 mm 4 mps 722 mmHg 42%
    16:00 +18°C° 0 mm 4 mps 722 mmHg 48%
    17:00 +16°C° 0 mm 3 mps 722 mmHg 54%
    18:00 +15°C° 0 mm 2 mps 722 mmHg 56%
    19:00 +14°C° 0 mm 2 mps 722 mmHg 59%
    20:00 +13°C° 0 mm 1 mps 723 mmHg 61%
    21:00 +12°C° 0 mm 1 mps 723 mmHg 64%
    22:00 +12°C° 0 mm 2 mps 723 mmHg 66%
    23:00 +10°C° 0 mm 2 mps 723 mmHg 69%
    Show more